Regional Weather Roundup
Issued by NWS Upton, NY

Current Version | Previous Version | Text Only | Print | Product List | Glossary Off
Versions: 1 2 3 4 5 6 7 8 9 10 11 12 13 14 15 16 17 18 19 20 21 22 23 24 25 26 27 28 29 30 31 32 33 34 35 36 37 38 39 40 41 42 43 44 45 46 47 48 49 50
264 ASUS41 KOKX 240408 RWROKX REGIONAL WEATHER ROUNDUP NATIONAL WEATHER SERVICE NEW YORK NY 1200 AM EDT FRI MAR 24 2017 NOTE: "FAIR" INDICATES FEW OR NO CLOUDS BELOW 12,000 FEET WITH NO SIGNIFICANT WEATHER AND/OR OBSTRUCTIONS TO VISIBILITY. NYZ071-072-176-178-NJZ106-104-240500- NEW YORK CITY METRO AREA CITY SKY/WX TMP DP RH WIND PRES REMARKS Central Park CLEAR 38 20 48 S3 30.54F Wall St Helipt CLEAR 37 25 60 SW6 30.55F WCI 33 LaGuardia APRT PTCLDY 40 22 48 SW7 30.53F Kennedy INTL PTCLDY 37 27 67 S10 30.55F WCI 30 Breezy Point N/A 37 N/A N/A S9 N/A WCI 31 Newark/Liberty PTCLDY 36 21 54 S3 30.53F Teterboro PTCLDY 32 16 51 NW6 30.53F WCI 26 $$ NYZ177-179-078>081-240500- LONG ISLAND NEW YORK CITY SKY/WX TMP DP RH WIND PRES REMARKS Jones Beach N/A 37 N/A N/A SW7G13 N/A WCI 32 Matinecock PT N/A 36 N/A N/A S5 N/A WCI 32 Farmingdale CLEAR 33 23 66 CALM 30.54F MacArthur/ISP PTCLDY 30 23 75 CALM 30.53F Shirley CLEAR 26 19 74 CALM 30.54F Westhampton CLEAR 16 5 62 CALM 30.56F East Hampton N/A 19 8 62 CALM 30.54F Montauk N/A 31 18 58 CALM 30.55F $$ NYZ052-065-067-240500- HUDSON VALLEY CITY SKY/WX TMP DP RH WIND PRES REMARKS White Plains CLEAR 29 19 66 CALM 30.51F Newburgh CLEAR 32 12 43 W5 30.52F WCI 27 Montgomery CLEAR 25 14 63 CALM 30.51R Poughkeepsie PTCLDY 25 15 66 CALM 30.52S Albany MOCLDY 24 9 52 SW3 30.52S $$ NJZ001-105-106-008-010-013-015-019>022-104-240500- NEW JERSEY CITY SKY/WX TMP DP RH WIND PRES REMARKS Newark/Liberty PTCLDY 36 21 54 S3 30.53F Teterboro PTCLDY 32 16 51 NW6 30.53F WCI 26 Caldwell PTCLDY 30 13 49 CALM 30.54F Somerville CLEAR 25 17 72 NW3 30.53S Linden N/A 34 20 57 CALM 30.55F Sussex CLEAR 24 16 71 SW3 30.51S Andover N/A 26 15 63 CALM 30.51S Trenton CLEAR 34 14 43 SW3 30.53F Millville CLEAR 27 22 81 CALM 30.56F Atlantic City CLEAR 33 19 56 S8 30.56F WCI 26 Wrightstown CLEAR 29 13 50 SW5 30.52F WCI 24 Toms River CLEAR 22 14 71 CALM 30.55F Belmar CLEAR 32 18 56 S5 30.55F WCI 27 $$ PAZ047>061-062-071-240500- EASTERN PENNSYLVANIA CITY SKY/WX TMP DP RH WIND PRES REMARKS Philadelphia CLEAR 36 20 52 S7 30.56F WCI 30 Allentown CLEAR 28 15 58 CALM 30.51F Scranton CLEAR 30 12 47 E5 30.46S WCI 25 $$ CTZ002-004>006-009-010-012-RIZ004-006-007-MAZ004-011-015-240500- SOUTHERN NEW ENGLAND IN CT CITY SKY/WX TMP DP RH WIND PRES REMARKS Bradley INTL PTCLDY 25 9 50 CALM 30.52F Hartford PTCLDY 28 14 55 SW3 30.53F Danbury PTCLDY 22 14 71 W3 30.53F Wtrbury/Oxford CLOUDY 27 7 43 CALM 30.50F Bridgeport PTCLDY 31 16 54 CALM 30.53F Meriden CLOUDY 25 14 63 CALM 30.53F New Haven CLEAR 25 15 66 CALM 30.53F Chester N/A 28 1 31 MISG 30.52F Groton CLEAR 26 12 55 CALM 30.54F Wilimantic CLEAR 26 12 55 CALM 30.53F IN RI CITY SKY/WX TMP DP RH WIND PRES REMARKS Providence CLEAR 29 4 34 W3 30.54F Block Island CLEAR 34 7 32 W3 30.55F Westerly CLEAR 26 11 52 CALM 30.54F IN MA CITY SKY/WX TMP DP RH WIND PRES REMARKS Boston CLEAR 33 5 30 W9 30.53S WCI 25 Worcester CLEAR 25 2 37 W8 30.47S WCI 16 Westfield CLEAR 25 8 48 CALM 30.50F Provincetown CLEAR 34 15 46 W10 30.52F WCI 26 Nantucket CLEAR 30 11 45 NW7 30.54S WCI 23 $$ ANZ330-335-338-340-345-350-353-355-240500- COASTAL MARINE OBSERVATIONS STATION/POSITION TIME SKY/WX TEMP WIND PRES VSBY WAVE AIR SEA DIR/SP/G HT/PER (UTC) (F) (DEG/KT/KT) (MB) (MI) (FT/S) NY HARB ENTRANCE 0250 40 41 200/ 10/ 12 1035.3 2/ 3 20 S FIRE ISLAND 0350 39 40 210/ 12/ 14 1034.9 2/ 3 GREAT SOUTH BAY NOT AVBL 23 SSW MONTAUK P 0250 38 42 1035.9 2/ 4 15 E BARNEGAT LI 0330 42 N/A 2/ 4 HUDSON CANYON 0250 38 44 250/ 10/ 12 1036.0 2/ 4 KINGS POINT 0348 36 38 1033.9 EXECUTION ROCKS NOT AVBL CENTRAL LI SOUND 0330 37 200/ 6/ 10 N/A 1 EASTERN LI SOUND NOT AVBL ROBBINS REEF 0348 37 180/ 10/ 11 1034.1 $$ >>>>>>>>>>>>>>>>>>>>>>>>>>>> KEY <<<<<<<<<<<<<<<<<<<<<<<<<<< > < > SKY/WX - Sky Condition/Present Weather < > TMP - Temperature in Fahrenheit < > DP - Dew Point in Fahrenheit < > RH - Relative Humidity in Percent < > WIND - Direction (from) and Speed in MPH < > PRES - Mean Sea Level Pressure (inches of Hg) < > WCI - Wind Chill Index < > VSB - VISIBILITY IN MILES < > HX - HEAT INDEX < > TC - TEMPERATURE IN CELSIUS < > VRB - VARIABLE WIND DIRECTION < > < >>>>>>>>>>>>>>>>>>>>>>>>>>>> KEY <<<<<<<<<<<<<<<<<<<<<<<<<<<

USA.gov is the U.S. government's official web portal to all federal, state and local government web resources and services.